Powrót do katalogu

HULIANWANG DIGUI-157

AktywnyŁącznośćLEO
NORAD 68131·PAYLOAD·🇨🇳 China

Wystrzelony Mar 12, 2026 z Wenchang Space Launch Site

Loading…

Następne Przeloty (najbliższe 24 godziny)

TLE

ŚwieżeSource: Space-Track

Epoka: Sep 14, 2026, 14:25 UTC

1 68131U 26047C   26257.60085575 -.00000094  00000-0  64192-4 0  9996
2 68131  49.9993  95.5076 0001200  68.8999 291.2001 13.29325432 24968

Śledź HULIANWANG DIGUI-157 w czasie rzeczywistym z AllMySat

Download on the App Store